Change the Weather History Date:

Thursday, March 13, 2014

  Actual Average (KORF) Record (KORF)
Temperature  
Mean Temperature 37 °F 48 °F  
Max Temperature 48 °F 57 °F 84 °F (1990)
Min Temperature 26 °F 40 °F 20 °F (1888)
Degree Days  
Heating Degree Days 28 17  
Month to date heating degree days 239  
Since 1 July heating degree days 2808  
Cooling Degree Days 0 0  
Month to date cooling degree days 0  
Year to date cooling degree days 1  
Moisture  
Dew Point 12 °F    
Average Humidity 37    
Maximum Humidity 74    
Minimum Humidity 16    
Precipitation  
Precipitation 0.00 in 0.12 in 2.04 in (1993)
Month to date precipitation 1.54  
Year to date precipitation 8.06  
Snow  
Snow 0.00 in 0.00 in 4.90 in (1926)
Month to date snowfall 0.2  
Since 1 July snowfall 5.8  
Snow Depth -    
Sea Level Pressure  
Sea Level Pressure 29.88 in    
Wind  
Wind Speed 15 mph (WNW)    
Max Wind Speed 26 mph    
Max Gust Speed 38 mph    
Visibility 10 miles    
Events      
T = Trace of Precipitation, MM = Missing Value Source: NWS Daily Summary

Daily Weather History Graph

Daily Weather History Graph

Search for Another Location

Airport or City:

Trip Planner

Search our weather history database for the weather conditions in past years. The results will help you decide how hot, cold, wet, or windy it might be!

Date:

Astronomy

Mar. 13, 2014 Rise Set
Actual Time 7:19 AM EDT 7:10 PM EDT
Civil Twilight 6:53 AM EDT 7:36 PM EDT
Nautical Twilight 6:23 AM EDT 8:06 PM EDT
Astronomical Twilight 5:53 AM EDT 8:36 PM EDT
Moon 4:37 PM EDT (3/13) 5:21 AM EDT (3/13)
Length of Visible Light 12h 43m
Length of Day
11h 51m
Waxing Gibbous, 91% of the Moon is Illuminated
Mar 13
Waxing Gibbous
Mar 16
Full
Mar 23
Last Quarter
Mar 30
New
Apr 7
First Quarter

Hourly Weather History & Observations

Time (EDT) Temp. Windchill Dew Point Humidity Pressure Visibility Wind Dir Wind Speed Gust Speed Precip Events Conditions
12:15 AM 48.2 °F - 32.0 °F 54% 29.45 in 10.0 mi West 17.3 mph 27.6 mph N/A   Scattered Clouds
12:35 AM 48.2 °F - 30.2 °F 50% 29.46 in 10.0 mi WNW 15.0 mph 26.5 mph N/A   Clear
12:55 AM 48.2 °F - 28.4 °F 46% 29.47 in 10.0 mi West 26.5 mph 33.4 mph N/A   Clear
1:15 AM 46.4 °F 38.7 °F 26.6 °F 46% 29.49 in 10.0 mi WNW 20.7 mph 32.2 mph N/A   Clear
1:35 AM 46.4 °F 39.2 °F 26.6 °F 46% 29.51 in 10.0 mi NW 18.4 mph 26.5 mph N/A   Clear
1:55 AM 44.6 °F 35.5 °F 24.8 °F 46% 29.54 in 10.0 mi WNW 25.3 mph 34.5 mph N/A   Clear
2:15 AM 42.8 °F 34.0 °F 23.0 °F 46% 29.56 in 10.0 mi WNW 20.7 mph 38.0 mph N/A   Clear
2:35 AM 42.8 °F 35.1 °F 23.0 °F 46% 29.58 in 10.0 mi WNW 16.1 mph 32.2 mph N/A   Clear
2:55 AM 41.0 °F 31.9 °F 23.0 °F 49% 29.59 in 10.0 mi WNW 19.6 mph 26.5 mph N/A   Clear
3:15 AM 41.0 °F 31.9 °F 21.2 °F 45% 29.61 in 10.0 mi WNW 19.6 mph 25.3 mph N/A   Clear
3:35 AM 41.0 °F 33.1 °F 21.2 °F 45% 29.62 in 10.0 mi WNW 15.0 mph 21.9 mph N/A   Clear
3:55 AM 39.2 °F 30.8 °F 21.2 °F 49% 29.63 in 10.0 mi WNW 15.0 mph 19.6 mph N/A   Clear
4:15 AM 39.2 °F 32.5 °F 21.2 °F 49% 29.63 in 10.0 mi WNW 10.4 mph 19.6 mph N/A   Clear
4:35 AM 39.2 °F 31.6 °F 21.2 °F 49% 29.64 in 10.0 mi WNW 12.7 mph 20.7 mph N/A   Clear
4:55 AM 39.2 °F 30.8 °F 19.4 °F 45% 29.65 in 10.0 mi WNW 15.0 mph 19.6 mph N/A   Clear
5:15 AM 37.4 °F 31.4 °F 21.2 °F 52% 29.66 in 10.0 mi WNW 8.1 mph - N/A   Clear
5:35 AM 37.4 °F 32.1 °F 21.2 °F 52% 29.67 in 10.0 mi West 6.9 mph - N/A   Clear
5:55 AM 37.4 °F 32.1 °F 23.0 °F 56% 29.68 in 10.0 mi West 6.9 mph - N/A   Clear
6:15 AM 35.6 °F 29.2 °F 23.0 °F 60% 29.70 in 10.0 mi West 8.1 mph - N/A   Clear
6:35 AM 35.6 °F 30.7 °F 23.0 °F 60% 29.71 in 10.0 mi West 5.8 mph - N/A   Clear
6:55 AM 35.6 °F 28.0 °F 21.2 °F 56% 29.72 in 10.0 mi West 10.4 mph - N/A   Clear
7:15 AM 35.6 °F 28.6 °F 21.2 °F 56% 29.74 in 10.0 mi West 9.2 mph - N/A   Clear
7:35 AM 35.6 °F 29.2 °F 21.2 °F 56% 29.76 in 10.0 mi WNW 8.1 mph - N/A   Clear
7:55 AM 35.6 °F 28.0 °F 15.8 °F 44% 29.78 in 10.0 mi WNW 10.4 mph 25.3 mph N/A   Clear
8:15 AM 35.6 °F 26.2 °F 12.2 °F 38% 29.79 in 10.0 mi WNW 15.0 mph 25.3 mph N/A   Clear
8:35 AM 37.4 °F 29.8 °F 10.4 °F 33% 29.81 in 10.0 mi WNW 11.5 mph 26.5 mph N/A   Clear
8:55 AM 37.4 °F 26.6 °F 8.6 °F 30% 29.83 in 10.0 mi NW 21.9 mph 29.9 mph N/A   Clear
9:15 AM 37.4 °F 27.2 °F 10.4 °F 33% 29.84 in 10.0 mi NW 19.6 mph 26.5 mph N/A   Clear
9:35 AM 37.4 °F 27.2 °F 8.6 °F 30% 29.86 in 10.0 mi WNW 19.6 mph 28.8 mph N/A   Clear
9:55 AM 37.4 °F 27.8 °F 8.6 °F 30% 29.87 in 10.0 mi WNW 17.3 mph 26.5 mph N/A   Clear
10:15 AM 37.4 °F 27.5 °F 6.8 °F 28% 29.87 in 10.0 mi WNW 18.4 mph 31.1 mph N/A   Clear
10:35 AM 39.2 °F 30.5 °F 8.6 °F 28% 29.88 in 10.0 mi West 16.1 mph 26.5 mph N/A   Clear
10:55 AM 37.4 °F 26.9 °F 8.6 °F 30% 29.89 in 10.0 mi WNW 20.7 mph 27.6 mph N/A   Clear
11:15 AM 39.2 °F 30.5 °F 3.2 °F 22% 29.89 in 10.0 mi WNW 16.1 mph 29.9 mph N/A   Clear
11:35 AM 39.2 °F 29.6 °F 6.8 °F 26% 29.90 in 10.0 mi West 19.6 mph 28.8 mph N/A   Clear
11:55 AM 39.2 °F 29.3 °F 3.2 °F 22% 29.91 in 10.0 mi NW 20.7 mph 29.9 mph N/A   Clear
12:15 PM 39.2 °F 28.7 °F 3.2 °F 22% 29.91 in 10.0 mi WNW 23.0 mph 31.1 mph N/A   Clear
12:35 PM 39.2 °F 30.2 °F 5.0 °F 24% 29.92 in 10.0 mi WNW 17.3 mph 31.1 mph N/A   Clear
12:55 PM 39.2 °F 29.3 °F 5.0 °F 24% 29.93 in 10.0 mi West 20.7 mph 36.8 mph N/A   Clear
1:15 PM 41.0 °F 31.1 °F 6.8 °F 24% 29.94 in 10.0 mi West 23.0 mph 31.1 mph N/A   Clear
1:35 PM 39.2 °F 29.3 °F 1.4 °F 21% 29.94 in 10.0 mi WNW 20.7 mph 29.9 mph N/A   Clear
1:55 PM 39.2 °F 30.5 °F 1.4 °F 21% 29.95 in 10.0 mi NW 16.1 mph 34.5 mph N/A   Clear
2:15 PM 39.2 °F 28.7 °F 1.4 °F 21% 29.95 in 10.0 mi NW 23.0 mph 31.1 mph N/A   Clear
2:35 PM 41.0 °F 32.8 °F 1.4 °F 19% 29.95 in 10.0 mi WNW 16.1 mph 29.9 mph N/A   Clear
2:55 PM 41.0 °F 31.6 °F 1.4 °F 19% 29.96 in 10.0 mi WNW 20.7 mph 31.1 mph N/A   Clear
3:15 PM 42.8 °F 34.8 °F 3.2 °F 19% 29.97 in 10.0 mi WNW 17.3 mph 31.1 mph N/A   Clear
3:35 PM 41.0 °F 32.2 °F -0.4 °F 18% 29.98 in 10.0 mi NW 18.4 mph 27.6 mph N/A   Clear
3:55 PM 41.0 °F 32.8 °F -0.4 °F 18% 29.98 in 10.0 mi WNW 16.1 mph 27.6 mph N/A   Clear
4:15 PM 42.8 °F 35.8 °F 1.4 °F 18% 29.99 in 10.0 mi WNW 13.8 mph 26.5 mph N/A   Clear
4:35 PM 41.0 °F 32.5 °F -0.4 °F 18% 30.00 in 10.0 mi WNW 17.3 mph 25.3 mph N/A   Clear
4:55 PM 42.8 °F 36.2 °F 1.4 °F 18% 30.00 in 10.0 mi WNW 12.7 mph 27.6 mph N/A   Clear
5:15 PM 42.8 °F 34.8 °F -0.4 °F 16% 30.01 in 10.0 mi WNW 17.3 mph 23.0 mph N/A   Clear
5:35 PM 41.0 °F 32.5 °F -0.4 °F 18% 30.02 in 10.0 mi WNW 17.3 mph 21.9 mph N/A   Clear
5:55 PM 41.0 °F 33.5 °F 1.4 °F 19% 30.03 in 10.0 mi WNW 13.8 mph 25.3 mph N/A   Clear
6:15 PM 41.0 °F 34.7 °F -0.4 °F 18% 30.05 in 10.0 mi WNW 10.4 mph 23.0 mph N/A   Clear
6:35 PM 41.0 °F 33.1 °F -0.4 °F 18% 30.06 in 10.0 mi West 15.0 mph 21.9 mph N/A   Clear
6:55 PM 39.2 °F 31.2 °F -2.2 °F 17% 30.07 in 10.0 mi WNW 13.8 mph 19.6 mph N/A   Clear
7:15 PM 39.2 °F 35.0 °F -0.4 °F 19% 30.09 in 10.0 mi NW 5.8 mph - N/A   Clear
7:35 PM 37.4 °F 33.8 °F 3.2 °F 24% 30.10 in 10.0 mi WNW 4.6 mph - N/A   Clear
7:55 PM 37.4 °F - 1.4 °F 22% 30.11 in 10.0 mi Calm Calm - N/A   Clear
8:15 PM 35.6 °F - 6.8 °F 30% 30.13 in 10.0 mi Calm Calm - N/A   Clear
8:35 PM 33.8 °F - 8.6 °F 35% 30.14 in 10.0 mi Calm Calm - N/A   Clear
8:55 PM 32.0 °F - 12.2 °F 44% 30.16 in 10.0 mi Calm Calm - N/A   Clear
9:15 PM 32.0 °F - 10.4 °F 41% 30.17 in 10.0 mi Calm Calm - N/A   Clear
9:35 PM 32.0 °F - 12.2 °F 44% 30.19 in 10.0 mi Calm Calm - N/A   Clear
9:55 PM 28.4 °F - 15.8 °F 59% 30.19 in 10.0 mi Calm Calm - N/A   Clear
10:15 PM 28.4 °F - 12.2 °F 51% 30.21 in 10.0 mi Calm Calm - N/A   Clear
10:35 PM 28.4 °F - 19.4 °F 69% 30.22 in 10.0 mi Calm Calm - N/A   Clear
10:55 PM 28.4 °F - 17.6 °F 64% 30.22 in 10.0 mi Calm Calm - N/A   Clear
11:15 PM 30.2 °F - 17.6 °F 60% 30.23 in 10.0 mi Calm Calm - N/A   Clear
11:35 PM 26.6 °F - 19.4 °F 74% 30.24 in 10.0 mi Calm Calm - N/A   Clear
11:55 PM 26.6 °F - 15.8 °F 64% 30.23 in 10.0 mi Calm Calm - N/A   Clear